| time (UTC) | temp F | wind direction | speed MPH | gust MPH | rain 1hr in | rain 24hr in | rain mn in | humidity % | barometer mb |
| 20260903073002 | 78 | 134 | 3.0 | 7.0 | 0.00 | 0.00 | 0.00 | 84 | 1004.7 |
| 20260903071609 | 79 | 146 | 2.0 | 5.0 | 0.00 | 0.00 | 0.00 | 83 | 1004.6 |
| 20260903070100 | 79 | 162 | 3.0 | 7.0 | 0.00 | 0.00 | 0.00 | 83 | 1004.7 |
| 20260903064556 | 79 | 148 | 3.0 | 7.0 | 0.00 | 0.00 | 0.00 | 82 | 1004.9 |
| 20260903063114 | 79 | 148 | 2.0 | 4.0 | 0.00 | 0.00 | 0.00 | 81 | 1005.0 |
| 20260903061552 | 79 | 127 | 2.0 | 4.0 | 0.00 | 0.00 | 0.00 | 80 | 1005.0 |
| 20260903060051 | 80 | 134 | 2.0 | 5.0 | 0.00 | 0.00 | 0.00 | 80 | 1005.1 |
| 20260903054550 | 80 | 128 | 2.0 | 4.0 | 0.00 | 0.00 | 0.00 | 79 | 1005.1 |
| 20260903053046 | 80 | 146 | 2.0 | 4.0 | 0.00 | 0.00 | 0.00 | 79 | 1005.1 |
| 20260903051547 | 80 | 150 | 2.0 | 5.0 | 0.00 | 0.00 | 0.00 | 78 | 1005.1 |
| 20260903050105 | 81 | 148 | 2.0 | 6.0 | 0.00 | 0.00 | 0.00 | 77 | 1005.1 |
| 20260903044542 | 81 | 131 | 1.0 | 5.0 | 0.00 | 0.00 | 0.00 | 76 | 1005.2 |
| 20260903043043 | 82 | 110 | 3.0 | 6.0 | 0.00 | 0.00 | 0.00 | 75 | 1005.2 |
| 20260903041541 | 82 | 110 | 4.0 | 10.0 | 0.00 | 0.00 | 0.00 | 74 | 1005.4 |
| 20260903040039 | 82 | 127 | 4.0 | 8.0 | 0.00 | 0.00 | 0.00 | 74 | 1005.6 |
| 20260903034539 | 83 | 100 | 4.0 | 10.0 | 0.00 | 0.00 | 0.00 | 73 | 1005.5 |
| 20260903033039 | 83 | 86 | 6.0 | 10.0 | 0.00 | 0.00 | 0.00 | 72 | 1005.5 |
| 20260903031537 | 83 | 103 | 7.0 | 11.0 | 0.00 | 0.00 | 0.00 | 71 | 1005.3 |
| 20260903030037 | 84 | 88 | 7.0 | 10.0 | 0.00 | 0.00 | 0.00 | 70 | 1005.1 |
| 20260903024536 | 85 | 122 | 4.0 | 8.0 | 0.00 | 0.00 | 0.00 | 68 | 1005.0 |
| 20260903023041 | 85 | 104 | 6.0 | 12.0 | 0.00 | 0.00 | 0.00 | 68 | 1004.8 |
| 20260903021535 | 86 | 102 | 5.0 | 10.0 | 0.00 | 0.00 | 0.00 | 66 | 1004.6 |
| 20260903020036 | 86 | 88 | 5.0 | 9.0 | 0.00 | 0.00 | 0.00 | 65 | 1004.4 |
| 20260903014536 | 87 | 85 | 5.0 | 11.0 | 0.00 | 0.00 | 0.00 | 62 | 1004.0 |
| 20260903013033 | 88 | 68 | 5.0 | 9.0 | 0.00 | 0.00 | 0.00 | 61 | 1004.0 |
| 20260903011548 | 89 | 117 | 2.0 | 10.0 | 0.00 | 0.00 | 0.00 | 59 | 1003.9 |
| 20260903010033 | 90 | 111 | 4.0 | 13.0 | 0.00 | 0.00 | 0.00 | 58 | 1003.6 |
| 20260903004531 | 91 | 75 | 6.0 | 15.0 | 0.00 | 0.00 | 0.00 | 55 | 1003.4 |
| 20260903003030 | 92 | 27 | 6.0 | 14.0 | 0.00 | 0.00 | 0.00 | 52 | 1003.1 |
| 20260903001533 | 95 | 88 | 9.0 | 18.0 | 0.00 | 0.00 | 0.00 | 46 | 1002.8 |
| 20260903000031 | 97 | 37 | 5.0 | 10.0 | 0.00 | 0.00 | 0.00 | 38 | 1002.6 |
| 20260902234537 | 98 | 27 | 5.0 | 10.0 | 0.00 | 0.00 | 0.00 | 37 | 1002.5 |
| 20260902233030 | 99 | 64 | 6.0 | 13.0 | 0.00 | 0.00 | 0.00 | 37 | 1002.6 |
| 20260902231538 | 99 | 69 | 5.0 | 11.0 | 0.00 | 0.00 | 0.00 | 37 | 1002.5 |
| 20260902230032 | 100 | 69 | 5.0 | 13.0 | 0.00 | 0.00 | 0.00 | 36 | 1002.6 |
| 20260902224526 | 100 | 356 | 5.0 | 11.0 | 0.00 | 0.00 | 0.00 | 34 | 1002.4 |
| 20260902223025 | 100 | 36 | 3.0 | 12.0 | 0.00 | 0.00 | 0.00 | 35 | 1002.4 |
| 20260902221523 | 100 | 33 | 5.0 | 14.0 | 0.00 | 0.00 | 0.00 | 36 | 1002.5 |
| 20260902220021 | 99 | 18 | 4.0 | 14.0 | 0.00 | 0.00 | 0.00 | 36 | 1002.6 |
| 20260902214521 | 100 | 37 | 4.0 | 8.0 | 0.00 | 0.00 | 0.00 | 35 | 1002.7 |
| 20260902213019 | 100 | 53 | 7.0 | 11.0 | 0.00 | 0.00 | 0.00 | 38 | 1002.8 |
| 20260902211523 | 99 | 342 | 2.0 | 17.0 | 0.00 | 0.00 | 0.00 | 38 | 1003.0 |
| 20260902210017 | 100 | 51 | 4.0 | 9.0 | 0.00 | 0.00 | 0.00 | 38 | 1003.1 |
| 20260902204514 | 100 | 359 | 5.0 | 12.0 | 0.00 | 0.00 | 0.00 | 37 | 1003.3 |
| 20260902203014 | 100 | 25 | 6.0 | 14.0 | 0.00 | 0.00 | 0.00 | 39 | 1003.5 |
| 20260902201511 | 100 | 18 | 1.0 | 11.0 | 0.00 | 0.00 | 0.00 | 36 | 1003.6 |
| 20260902200008 | 100 | 4 | 2.0 | 8.0 | 0.00 | 0.00 | 0.00 | 38 | 1004.0 |
| 20260902194509 | 99 | 25 | 8.0 | 11.0 | 0.00 | 0.00 | 0.00 | 39 | 1004.2 |
| 20260902193003 | 98 | 304 | 1.0 | 9.0 | 0.00 | 0.00 | 0.00 | 42 | 1004.4 |
| 20260902191559 | 98 | 94 | 3.0 | 8.0 | 0.00 | 0.00 | 0.00 | 42 | 1004.7 |
| 20260902190058 | 97 | 39 | 6.0 | 10.0 | 0.00 | 0.00 | 0.00 | 43 | 1005.0 |
| 20260902184559 | 98 | 28 | 3.0 | 16.0 | 0.00 | 0.00 | 0.00 | 43 | 1005.2 |
| 20260902183053 | 97 | 328 | 5.0 | 11.0 | 0.00 | 0.00 | 0.00 | 44 | 1005.4 |
| 20260902181549 | 97 | 316 | 4.0 | 10.0 | 0.00 | 0.00 | 0.00 | 45 | 1005.7 |
| 20260902174542 | 96 | 305 | 4.0 | 10.0 | 0.00 | 0.00 | 0.00 | 47 | 1006.3 |
| 20260902173038 | 94 | 29 | 0.0 | 11.0 | 0.00 | 0.00 | 0.00 | 50 | 1006.5 |
| 20260902171537 | 94 | 314 | 3.0 | 8.0 | 0.00 | 0.00 | 0.00 | 50 | 1006.9 |
| 20260902170038 | 93 | 281 | 4.0 | 7.0 | 0.00 | 0.00 | 0.00 | 52 | 1007.1 |
| 20260902164533 | 93 | 321 | 3.0 | 8.0 | 0.00 | 0.00 | 0.00 | 52 | 1007.3 |
| 20260902163031 | 93 | 313 | 0.0 | 6.0 | 0.00 | 0.00 | 0.00 | 54 | 1007.5 |
| 20260902161541 | 92 | 360 | 0.0 | 4.0 | 0.00 | 0.00 | 0.00 | 55 | 1007.5 |
| 20260902160026 | 89 | 121 | 0.0 | 5.0 | 0.00 | 0.00 | 0.00 | 59 | 1007.6 |
| 20260902154530 | 89 | 320 | 3.0 | 7.0 | 0.00 | 0.00 | 0.00 | 60 | 1007.6 |
| 20260902153024 | 89 | 349 | 1.0 | 4.0 | 0.00 | 0.00 | 0.00 | 60 | 1007.6 |
| 20260902151521 | 88 | 117 | 0.0 | 3.0 | 0.00 | 0.00 | 0.00 | 63 | 1007.6 |
| 20260902150019 | 87 | 103 | 2.0 | 5.0 | 0.00 | 0.00 | 0.00 | 64 | 1007.7 |
| 20260902144528 | 86 | 106 | 1.0 | 5.0 | 0.00 | 0.00 | 0.00 | 66 | 1007.8 |
| 20260902143016 | 84 | 46 | 1.0 | 5.0 | 0.00 | 0.00 | 0.00 | 69 | 1007.8 |
| 20260902141519 | 83 | 110 | 2.0 | 4.0 | 0.00 | 0.00 | 0.00 | 70 | 1007.8 |
| 20260902140015 | 83 | 37 | 0.0 | 1.0 | 0.00 | 0.00 | 0.00 | 71 | 1007.7 |
| 20260902134518 | 81 | 37 | 0.0 | 0.0 | 0.00 | 0.00 | 0.00 | 75 | 1007.7 |
| 20260902133004 | 79 | 37 | 0.0 | 0.0 | 0.00 | 0.00 | 0.00 | 77 | 1007.6 |
| 20260902131509 | 78 | 37 | 0.0 | 1.0 | 0.00 | 0.00 | 0.00 | 78 | 1007.6 |
| 20260902130002 | 0 | 0.0 | 0.0 | 0.00 | 0.00 | 0.00 | 1007.3 | ||
| 20260902124603 | 0 | 0.0 | 0.0 | 0.00 | 0.00 | 0.00 | 1007.3 | ||
| 20260902123059 | 0 | 0.0 | 0.0 | 0.00 | 0.00 | 0.00 | 1007.0 | ||
| 20260902121559 | 0 | 0.0 | 0.0 | 0.00 | 0.00 | 0.00 | 1006.9 | ||
| 20260902120045 | 0 | 0.0 | 0.0 | 0.00 | 0.00 | 0.00 | 1006.9 | ||
| 20260902114541 | 0 | 0.0 | 0.0 | 0.00 | 0.00 | 0.00 | 1006.8 | ||
| 20260902113044 | 0 | 0.0 | 0.0 | 0.00 | 0.00 | 0.00 | 1006.7 | ||
| 20260902111532 | 0 | 0.0 | 0.0 | 0.00 | 0.00 | 0.00 | 1006.9 | ||
| 20260902110029 | 0 | 0.0 | 0.0 | 0.00 | 0.00 | 0.00 | 1006.9 | ||
| 20260902104524 | 0 | 0.0 | 0.0 | 0.00 | 0.00 | 0.00 | 1006.9 | ||
| 20260902103027 | 0 | 0.0 | 0.0 | 0.00 | 0.00 | 0.00 | 1006.7 | ||
| 20260902101519 | 0 | 0.0 | 0.0 | 0.00 | 0.00 | 0.00 | 1006.6 | ||
| 20260902100015 | 0 | 0.0 | 0.0 | 0.00 | 0.00 | 0.00 | 1006.5 | ||
| 20260902094506 | 77 | 179 | 0.0 | 0.0 | 0.00 | 0.00 | 0.00 | 76 | 1006.6 |
| 20260902093003 | 78 | 177 | 0.0 | 0.0 | 0.00 | 0.00 | 0.00 | 77 | 1006.7 |
| 20260902091501 | 78 | 177 | 0.0 | 0.0 | 0.00 | 0.00 | 0.00 | 75 | 1006.8 |
| 20260902090000 | 79 | 177 | 0.0 | 0.0 | 0.00 | 0.00 | 0.00 | 74 | 1006.8 |
| 20260902084610 | 79 | 178 | 0.0 | 1.0 | 0.00 | 0.00 | 0.00 | 74 | 1006.8 |
| 20260902083059 | 79 | 177 | 0.0 | 0.0 | 0.00 | 0.00 | 0.00 | 75 | 1006.8 |
| 20260902081604 | 79 | 177 | 0.0 | 0.0 | 0.00 | 0.00 | 0.00 | 75 | 1006.8 |
| 20260902080055 | 79 | 177 | 1.0 | 3.0 | 0.00 | 0.00 | 0.00 | 74 | 1006.9 |
| 20260902074553 | 80 | 155 | 0.0 | 2.0 | 0.00 | 0.00 | 0.00 | 74 | 1007.1 |